Miscellaneous Local Product
Issued by NWS North Platte, NE

Home | Current Version | Previous Version | Graphics & Text | Print | Product List | Glossary On
Versions: 1 2 3 4 5 6 7 8 9 10 11 12 13 14 15 16 17 18 19 20 21 22 23 24 25 26 27 28 29 30 31 32 33 34 35 36 37 38 39 40 41 42 43 44 45 46 47 48 49 50
000
AXUS43 KLBF 251010
MISLBF


WESTERN AND NORTH CENTRAL NEBRASKA HOURLY WEATHER ROUNDUP
NATIONAL WEATHER SERVICE NORTH PLATTE NE
500 AM CDT TUE JUL 25 2017

NOTE: "FAIR" INDICATES FEW OR NO CLOUDS BELOW 12,000 FEET WITH NO
SIGNIFICANT WEATHER AND/OR OBSTRUCTIONS TO VISIBILITY.

NOTE: STATIONS NOT REPORTING VARIABLES SUCH AS SKY/WEATHER OR
PRESSURE ARE PROVIDED BY RAWS AND APRS NETWORKS AND ARE NOT UNDER
NATIONAL WEATHER SERVICE QUALITY CONTROL.

...OBSERVATIONS IN AND NEAR THE EASTERN PANHANDLE OF NEBRASKA...

CITY           SKY/WX    TMP DP  RH WIND       PRES   REMARKS
PINE RIDGE     CLEAR     73  58  59 SW7       29.88S
GORDON         FAIR      68  58  72 CALM      29.91S
CHADRON        CLEAR     76  54  46 SW5       29.86S
ALLIANCE       CLOUDY    69  58  67 SE6       29.93R
SIDNEY         CLEAR     73  60  63 SW13      29.99S
CRESCENT LAKE    N/A     74  62  66 SE6G15      N/A
$$

...OBSERVATIONS IN NORTHERN NEBRASKA AND FAR SOUTHERN SOUTH DAKOTA...

CITY           SKY/WX    TMP DP  RH WIND       PRES   REMARKS
WINNER         FAIR      78  66  66 S20G28    29.81S
VALENTINE      CLEAR     71  57  61 S7        29.88F
THEDFORD       CLEAR     79  57  45 S15G21    29.93S
AINSWORTH      CLEAR     73  58  58 S13       29.90S
O`NEILL        CLEAR     74  67  79 S13       29.91S
ORD            CLEAR     74  62  66 S7        29.94R
BROKEN BOW     CLEAR     69  59  70 S10       29.96S
VALENTINE NWR    N/A     71  58  63 S9          N/A
HALSEY           N/A     78  53  41 S9G18       N/A
BUTTE            N/A     76  64  67 S12G22      N/A
CHAMBERS         N/A     73  66  80 SW6         N/A
EWING            N/A     76  68  76 S8G15       N/A
$$

...OBSERVATIONS IN SOUTHWEST NEBRASKA AND FAR NORTHEAST COLORADO...

CITY           SKY/WX    TMP DP  RH WIND       PRES   REMARKS
HOLYOKE        FAIR      73  64  73 S8        29.98S
IMPERIAL       CLEAR     73  61  65 S10       29.96S
OGALLALA       CLEAR     74  62  66 CALM      29.95S
NORTH PLATTE   CLEAR     76  57  51 SE6       29.95S
MCCOOK         CLEAR     75  60  59 SW7       29.96S
LEXINGTON      CLEAR     74  59  58 SE8       29.98R
STAPLETON        N/A     73  57  57 CALM        N/A
GOTHENBURG       N/A     78  52  39 S7          N/A
CALLAWAY         N/A     73  60  63 S12         N/A
$$

...OBSERVATIONS IN CENTRAL LINCOLN COUNTY AREA...

CITY           SKY/WX    TMP DP  RH WIND       PRES   REMARKS
N.P. AIRPORT   CLEAR     76  57  51 SE6       29.95S
N.P. DOWNTOWN    N/A     77  60  55 CALM        N/A
N.P. HILLCREST   N/A     75  59  57 S6          N/A
$$

...SOME OBSERVATIONS FROM AROUND THE REGION...

CITY           SKY/WX    TMP DP  RH WIND       PRES   REMARKS
DENVER         MOCLDY    70  51  51 S5        30.04F
LIMON          CLOUDY    61  60  97 CALM      30.10F
ASPEN          CLOUDY    59  50  72 SW5       30.33S
LARAMIE        CLOUDY    59  43  55 S6        30.20S
CASPER         CLOUDY    59  43  55 W6        30.04S
CHEYENNE       CLOUDY    63  45  51 W3        30.11F
SCOTTSBLUFF    PTCLDY    78  55  44 CALM      29.94S
GRAND ISLAND   CLEAR     72  68  87 S10       29.98R
OMAHA          PTCLDY    75  65  70 S18       29.99S
SIOUX FALLS    PTCLDY    70  66  87 SE10      29.92S
PIERRE         CLEAR     66  61  84 NE5       29.77S
RAPID CITY     CLEAR     63  53  70 CALM      29.84F
BISMARCK       PTCLDY    69  66  90 NE6       29.85R
KANSAS CITY    CLEAR     72  66  81 SE7       30.05R
HILL CITY      CLEAR     74  61  63 S10       29.99S
WICHITA        CLEAR     73  69  87 S7        30.02S
DODGE CITY     CLEAR     71  65  81 S9        30.05S
OKLAHOMA CITY  CLEAR     73  70  90 S6        30.04R
DALLAS         PTCLDY    79  75  87 S8        30.01R
AMARILLO       CLEAR     70  65  84 SE12      30.10S
$$




USA.gov is the U.S. government's official web portal to all federal, state and local government web resources and services.